| time (UTC) | temp C | wind direction | speed KPH | gust KPH | rain 1hr cm | rain 24hr cm | rain mn cm | humidity % | barometer mb |
| 20260903003021 | 13 | 131 | 0.0 | 1.6 | 0.03 | 0.46 | 0.10 | 95 | 1006.3 |
| 20260903001525 | 13 | 119 | 0.0 | 1.6 | 0.03 | 0.46 | 0.10 | 95 | 1006.3 |
| 20260903000016 | 13 | 91 | 0.0 | 1.6 | 0.03 | 0.46 | 0.10 | 96 | 1006.1 |
| 20260902234506 | 13 | 113 | 0.0 | 1.6 | 0.00 | 0.43 | 0.08 | 96 | 1006.1 |
| 20260902233008 | 13 | 148 | 0.0 | 1.6 | 0.05 | 0.43 | 0.08 | 96 | 1006.0 |
| 20260902231508 | 13 | 129 | 0.0 | 1.6 | 0.05 | 0.43 | 0.08 | 96 | 1006.1 |
| 20260902230001 | 13 | 140 | 0.0 | 1.6 | 0.05 | 0.43 | 0.08 | 96 | 1005.9 |
| 20260902224614 | 13 | 165 | 0.0 | 4.8 | 0.08 | 0.43 | 0.08 | 96 | 1005.6 |
| 20260902223112 | 13 | 198 | 1.6 | 6.4 | 0.03 | 0.38 | 0.03 | 95 | 1005.4 |
| 20260902221605 | 13 | 193 | 0.0 | 6.4 | 0.03 | 0.38 | 0.03 | 95 | 1005.3 |
| 20260902220037 | 13 | 135 | 0.0 | 4.8 | 0.03 | 0.38 | 0.03 | 95 | 1005.2 |
| 20260902214605 | 13 | 155 | 0.0 | 6.4 | 0.00 | 0.36 | 0.00 | 95 | 1005.1 |
| 20260902213022 | 13 | 162 | 0.0 | 9.7 | 0.00 | 0.36 | 0.00 | 95 | 1005.1 |
| 20260902211527 | 13 | 168 | 0.0 | 4.8 | 0.00 | 0.36 | 0.36 | 95 | 1005.1 |
| 20260902210021 | 13 | 163 | 0.0 | 3.2 | 0.03 | 0.36 | 0.36 | 95 | 1005.0 |
| 20260902204520 | 13 | 310 | 0.0 | 4.8 | 0.03 | 0.36 | 0.36 | 95 | 1005.0 |
| 20260902203020 | 13 | 202 | 0.0 | 6.4 | 0.08 | 0.36 | 0.36 | 95 | 1004.9 |
| 20260902201531 | 13 | 207 | 1.6 | 11.3 | 0.10 | 0.36 | 0.36 | 95 | 1004.8 |
| 20260902200018 | 13 | 234 | 0.0 | 9.7 | 0.15 | 0.33 | 0.33 | 95 | 1004.8 |
| 20260902194532 | 13 | 199 | 0.0 | 9.7 | 0.18 | 0.33 | 0.33 | 95 | 1004.6 |
| 20260902193002 | 13 | 143 | 0.0 | 3.2 | 0.15 | 0.28 | 0.28 | 95 | 1005.0 |
| 20260902191600 | 13 | 175 | 0.0 | 1.6 | 0.15 | 0.25 | 0.25 | 94 | 1005.2 |
| 20260902190059 | 13 | 176 | 0.0 | 3.2 | 0.08 | 0.18 | 0.18 | 94 | 1005.6 |
| 20260902184558 | 13 | 172 | 0.0 | 1.6 | 0.08 | 0.15 | 0.15 | 94 | 1005.4 |
| 20260902183058 | 13 | 174 | 0.0 | 1.6 | 0.10 | 0.13 | 0.13 | 93 | 1005.4 |
| 20260902181601 | 13 | 165 | 0.0 | 3.2 | 0.10 | 0.10 | 0.10 | 93 | 1005.6 |
| 20260902180057 | 13 | 165 | 0.0 | 3.2 | 0.10 | 0.10 | 0.10 | 93 | 1005.9 |
| 20260902174556 | 13 | 127 | 0.0 | 4.8 | 0.08 | 0.08 | 0.08 | 91 | 1006.0 |
| 20260902173040 | 13 | 138 | 0.0 | 3.2 | 0.03 | 0.03 | 0.03 | 90 | 1006.0 |
| 20260902171542 | 13 | 164 | 0.0 | 1.6 | 0.00 | 0.00 | 0.00 | 88 | 1005.9 |
| 20260902170039 | 14 | 153 | 0.0 | 0.0 | 0.00 | 0.00 | 0.00 | 86 | 1005.8 |
| 20260902164544 | 15 | 160 | 0.0 | 3.2 | 0.00 | 0.00 | 0.00 | 82 | 1005.7 |
| 20260902163038 | 15 | 141 | 0.0 | 3.2 | 0.00 | 0.00 | 0.00 | 79 | 1005.6 |
| 20260902161538 | 15 | 158 | 0.0 | 1.6 | 0.00 | 0.00 | 0.00 | 79 | 1005.6 |
| 20260902160035 | 15 | 167 | 0.0 | 0.0 | 0.00 | 0.00 | 0.00 | 82 | 1005.7 |
| 20260902154534 | 15 | 163 | 0.0 | 0.0 | 0.00 | 0.00 | 0.00 | 83 | 1005.8 |
| 20260902153027 | 15 | 163 | 0.0 | 3.2 | 0.00 | 0.00 | 0.00 | 82 | 1005.9 |
| 20260902151519 | 15 | 186 | 0.0 | 1.6 | 0.00 | 0.00 | 0.00 | 79 | 1006.2 |
| 20260902150020 | -17 | 0.0 | 0.0 | 0.00 | 0.00 | 0.00 | 1006.2 | ||
| 20260902144512 | -17 | 0.0 | 0.0 | 0.00 | 0.00 | 0.00 | 1006.3 | ||
| 20260902143008 | -17 | 0.0 | 0.0 | 0.00 | 0.00 | 0.00 | 1006.4 | ||
| 20260902141504 | -17 | 0.0 | 0.0 | 0.00 | 0.00 | 0.00 | 1006.6 | ||
| 20260902140107 | -17 | 0.0 | 0.0 | 0.00 | 0.00 | 0.00 | 1006.7 | ||
| 20260902134558 | -17 | 0.0 | 0.0 | 0.00 | 0.00 | 0.00 | 1006.9 | ||
| 20260902133101 | -17 | 0.0 | 0.0 | 0.00 | 0.00 | 0.00 | 1007.1 | ||
| 20260902131529 | -17 | 0.0 | 0.0 | 0.00 | 0.00 | 0.00 | 1007.2 | ||
| 20260902130028 | -17 | 0.0 | 0.0 | 0.00 | 0.00 | 0.00 | 1007.6 | ||
| 20260902124508 | -17 | 0.0 | 0.0 | 0.00 | 0.00 | 0.00 | 1007.8 | ||
| 20260902123007 | -17 | 0.0 | 0.0 | 0.00 | 0.00 | 0.00 | 1007.9 | ||
| 20260902121609 | -17 | 0.0 | 0.0 | 0.00 | 0.00 | 0.00 | 1008.1 | ||
| 20260902120056 | -17 | 0.0 | 0.0 | 0.00 | 0.00 | 0.00 | 1008.3 | ||
| 20260902114553 | -17 | 0.0 | 0.0 | 0.00 | 0.00 | 0.00 | 1008.5 | ||
| 20260902113054 | -17 | 0.0 | 0.0 | 0.00 | 0.00 | 0.00 | 1008.7 | ||
| 20260902111544 | 13 | 176 | 0.0 | 0.0 | 0.00 | 0.00 | 0.00 | 84 | 1008.8 |
| 20260902110042 | 13 | 171 | 0.0 | 0.0 | 0.00 | 0.00 | 0.00 | 84 | 1008.9 |
| 20260902104535 | 13 | 186 | 0.0 | 1.6 | 0.00 | 0.00 | 0.00 | 84 | 1008.9 |
| 20260902103027 | 13 | 161 | 0.0 | 1.6 | 0.00 | 0.00 | 0.00 | 85 | 1009.1 |
| 20260902101535 | 13 | 288 | 0.0 | 1.6 | 0.00 | 0.00 | 0.00 | 85 | 1009.1 |
| 20260902100025 | 13 | 174 | 0.0 | 1.6 | 0.00 | 0.00 | 0.00 | 87 | 1009.1 |
| 20260902094523 | 13 | 162 | 0.0 | 0.0 | 0.00 | 0.00 | 0.00 | 87 | 1009.2 |
| 20260902093025 | 13 | 162 | 0.0 | 0.0 | 0.00 | 0.00 | 0.00 | 87 | 1009.3 |
| 20260902091519 | 13 | 162 | 0.0 | 0.0 | 0.00 | 0.00 | 0.00 | 88 | 1009.6 |
| 20260902090019 | 13 | 163 | 0.0 | 1.6 | 0.00 | 0.00 | 0.00 | 89 | 1009.8 |
| 20260902084506 | 13 | 162 | 0.0 | 1.6 | 0.00 | 0.00 | 0.00 | 89 | 1009.9 |
| 20260902083006 | 13 | 157 | 0.0 | 1.6 | 0.00 | 0.00 | 0.00 | 88 | 1009.9 |
| 20260902081503 | 13 | 164 | 0.0 | 1.6 | 0.00 | 0.00 | 0.00 | 88 | 1009.9 |
| 20260902080001 | 14 | 313 | 0.0 | 0.0 | 0.00 | 0.00 | 0.00 | 86 | 1009.9 |
| 20260902074614 | 14 | 314 | 0.0 | 4.8 | 0.00 | 0.00 | 0.00 | 85 | 1009.9 |
| 20260902073058 | 14 | 171 | 0.0 | 0.0 | 0.00 | 0.00 | 0.00 | 84 | 1010.1 |
| 20260902071556 | 15 | 154 | 0.0 | 0.0 | 0.00 | 0.00 | 0.00 | 83 | 1010.2 |
| 20260902070055 | 15 | 165 | 0.0 | 0.0 | 0.00 | 0.00 | 0.00 | 83 | 1010.4 |
| 20260902064546 | 15 | 160 | 0.0 | 1.6 | 0.00 | 0.00 | 0.00 | 82 | 1010.5 |
| 20260902063044 | 14 | 170 | 0.0 | 3.2 | 0.00 | 0.00 | 0.00 | 83 | 1010.5 |
| 20260902061547 | 14 | 174 | 0.0 | 0.0 | 0.00 | 0.00 | 0.00 | 83 | 1010.4 |
| 20260902060040 | 15 | 174 | 0.0 | 0.0 | 0.00 | 0.00 | 0.00 | 82 | 1010.4 |
| 20260902054541 | 15 | 136 | 0.0 | 0.0 | 0.00 | 0.00 | 0.00 | 83 | 1010.6 |
| 20260902053038 | 15 | 136 | 0.0 | 0.0 | 0.00 | 0.00 | 0.00 | 82 | 1010.7 |
| 20260902051536 | 15 | 136 | 0.0 | 0.0 | 0.00 | 0.00 | 0.00 | 82 | 1010.6 |
| 20260902050036 | 15 | 150 | 0.0 | 1.6 | 0.00 | 0.00 | 0.00 | 81 | 1010.7 |
| 20260902044528 | 15 | 159 | 0.0 | 0.0 | 0.00 | 0.00 | 0.00 | 81 | 1010.9 |
| 20260902043032 | 15 | 158 | 0.0 | 0.0 | 0.00 | 0.00 | 0.00 | 80 | 1010.8 |
| 20260902041521 | 15 | 158 | 0.0 | 0.0 | 0.00 | 0.00 | 0.00 | 79 | 1010.8 |
| 20260902040019 | 15 | 158 | 0.0 | 0.0 | 0.00 | 0.00 | 0.00 | 78 | 1010.8 |
| 20260902034516 | 16 | 158 | 0.0 | 0.0 | 0.00 | 0.00 | 0.00 | 77 | 1010.6 |
| 20260902033015 | 16 | 158 | 0.0 | 0.0 | 0.00 | 0.00 | 0.00 | 76 | 1010.6 |
| 20260902031522 | 16 | 158 | 0.0 | 1.6 | 0.00 | 0.00 | 0.00 | 75 | 1010.5 |
| 20260902030011 | 16 | 143 | 0.0 | 1.6 | 0.00 | 0.00 | 0.00 | 74 | 1010.4 |
| 20260902024558 | 16 | 160 | 0.0 | 0.0 | 0.00 | 0.00 | 0.00 | 74 | 1010.4 |
| 20260902023108 | 16 | 172 | 0.0 | 0.0 | 0.00 | 0.00 | 0.00 | 74 | 1010.4 |
| 20260902021555 | 17 | 149 | 0.0 | 0.0 | 0.00 | 0.00 | 0.00 | 73 | 1010.3 |
| 20260902020053 | 17 | 126 | 0.0 | 0.0 | 0.00 | 0.00 | 0.00 | 74 | 1010.2 |
| 20260902014551 | 17 | 126 | 0.0 | 1.6 | 0.00 | 0.00 | 0.00 | 76 | 1010.2 |
| 20260902013050 | 17 | 126 | 0.0 | 1.6 | 0.00 | 0.00 | 0.00 | 74 | 1010.1 |
| 20260902011610 | 17 | 157 | 0.0 | 0.0 | 0.00 | 0.00 | 0.00 | 72 | 1010.0 |
| 20260902010048 | 17 | 162 | 0.0 | 1.6 | 0.00 | 0.00 | 0.00 | 72 | 1010.1 |
| 20260902004538 | 18 | 141 | 0.0 | 1.6 | 0.00 | 0.00 | 0.00 | 71 | 1010.0 |